GEOSCAN 1 (RS92S1)

Last updated on Mon Sep 15 2025 00:03:10 GMT+0000 (Coordinated Universal Time)

1 64880U 25155E 25256.92512068 .00008866 00000+0 38199-3 0 9997 2 64880 97.4193 221.4913 0011532 78.3642 281.8888 15.22753160 38618
UTC large
Height (km)
Speed (km/s)
/
Latitude / Longitude
Inclination (degrees)
Orbital Period (minutes)
Azimuth
Elevation
Range (km)
Doppler Factor

Next 0 passes for location: London (51.5072 / 0.1276)

Sorry there are no passes over London.